METEOR 2-5 DEB, 38273

Orbit data source: Space-Track

METEOR 2-5 DEB, 38273 is space debris in LEO originally from a launch on Wed, 31 Oct 1979 UTC launched from the Plesetsk Missile And Space Complex (PKMTR). Debris objects in space refer to the collection of defunct objects orbiting the Earth. Examples of debris include non-operational satellites, rocket bodies, and fragments generated from explosions, collisions, or faulty payload assembly.

Loading next visibility...
Identifier
38273, 1979-095BT
Orbit
LEO
Country
Flag of CISCIS
Related business
Manufacturer
Unknown
Mission
Spacecraft
Bus & Motor
Unknown
Mass
Unknown
Launch date (UTC)
1979-10-31 (47 years ago)
Launch vehicle
Unknown
Launch site
Plesetsk Missile And Space Complex (PKMTR)
Object type
Payload
Rocket body
Debris
Shape & HBR
Unknown shape, 0.1 m
Radar Cross Section
Small (<0.1 m²)

Expand to show TLE details & history
Last TLE update: 1 week ago

TLE from 1 week ago
0 METEOR 2-5 DEB
1 38273U 79095BT  26167.13173477  .00005000  00000-0  14682-2 0  9996
2 38273  81.2164 120.8352 0006825 129.1005 231.0792 14.43688588675802
Epoch: 2026-06-16T03:09Z
TLE epoch observation values (Epoch: 2026-06-16T03:09:41.884Z)
Latitude
-0.00002°
Longitude
169.00251°
Altitude
752.339 km
Speed
7.477 km/s
True Right ascension
08h 03m 20s
True Declination
0° 00' 00"
Sunlit
Object was in daylight at epoch
Visualization orbit readout
Latitude
Unknown
Longitude
Unknown
Altitude
Unknown
Speed
Unknown
Apparent Right ascension
Unknown
Apparent Declination
Unknown
Sunlit
N/A
Visualization observer readout
Local Sidereal Time
07:10:07
Azimuth
Unknown
Elevation
Unknown
Doppler factor
Unknown
Orbital elements
Apogee altitude
748.328 km
Perigee altitude
738.607 km
Semi-major axis
7,121.605 km
Eccentricity
0.00068
Inclination
81.2164°
RAAN
120.8352°
Arg. of periapsis
129.1005°
True anomaly
231.01839°
Mean anomaly
231.0792°
Eccentric anomaly
231.04879°
Mean motion
3.61141 °/min
Orbital period
99.68 mins
BSTAR
0.0014682
Loading maneuver chart data...
Computing Atmospheric mass density...

Documentation

Showing up to 5 results
|